Tracking 19562 objects as of 22-Mar-2019
HD Live streaming from Space Station
objects crossing your sky now

GLOBALSTAR M049

Track GLOBALSTAR M049 now!
10-day predictions
GLOBALSTAR M049 is classified as:


NORAD ID: 25771
Int'l Code: 1999-031B
Perigee: 2,105.8 km
Apogee: 2,108.8 km
Inclination: 52.0 °
Period: 129.5 minutes
Semi major axis: 8478 km
RCS: 2.3329 m2 (large)
Launch date: June 10, 1999
Source: Globalstar (GLOB)
Launch site: AIR FORCE EASTERN TEST RANGE (AFETR)
aabbcc
Your satellite tracking list
Your tracking list is empty




NASA's NSSDC Master Catalog

Two Line Element Set (TLE):
1 25771U 99031B   19079.73719400 +.00000018 +00000-0 +28814-2 0  9995
2 25771 051.9895 322.0816 0001758 176.1017 183.9793 11.12094840863701
Source of the keplerian elements: AFSPC